sat.trackr.live / text

‹ back to catalog

STARLINK-2585

NORAD 48382 · 2021-038AF

PAYLOAD ACTIVE UNKNOWN

§ Identity

Operator
Country
US
Launch date
2021-05-04
Launch site
AFETR
Launch vehicle
Mass (kg)
RCS (m²)

Purposes: comms

External: N2YO · Heavens-Above · Gunter

§ Orbital elements

Epoch: 2026-09-09T07:33:06.670656Z

Period
94.01 min
Inclination
53.1567°
Eccentricity
0.0001281
Mean motion
15.31705240 rev/d
Perigee alt
469.8 km
Apogee alt
471.6 km
Semi-major
6,848.9 km
B*
1.8154e-4
RAAN
213.2522°
Arg perigee
101.9477°
Mean anomaly
258.1668°
Rev number
29,536

§ Raw data

STARLINK-25851 48382U 21038AF  26252.31466054  .00005273  00000+0  18154-3 0  99932 48382  53.1567 213.2522 0001281 101.9477 258.1668 15.31705240295361

JSON: /api/v1/satellites/48382 · /tle

For live sub-satellite position, see the globe view (requires WebGL).

§ Visibility from observer

Set your observer location to see the next 7 days of passes ≥ 10°. The values pass through the URL so the page stays shareable.

No JS? Fill the form by hand. The geolocation button needs JavaScript.